Weather History for Fort Knox, KY

Change the Weather History Date:

Saturday, November 10, 2012

  Actual Average Record
Temperature  
Mean Temperature 58 °F -  
Max Temperature 72 °F 54 °F 78 °F (2002)
Min Temperature 45 °F 36 °F 26 °F (1996)
Degree Days  
Heating Degree Days 6    
Growing Degree Days 8 (Base 50)    
Moisture  
Dew Point 41 °F    
Average Humidity 55    
Maximum Humidity 73    
Minimum Humidity 34    
Precipitation  
Precipitation 0.00 in - - ()
Sea Level Pressure  
Sea Level Pressure 30.18 in    
Wind  
Wind Speed 9 mph (South)    
Max Wind Speed 17 mph    
Max Gust Speed 23 mph    
Visibility 10 miles    
Events      
Averages and records for this station are not official NWS values.
T = Trace of Precipitation, MM = Missing Value Source: NWS Daily Summary

Daily Weather History Graph

Daily Weather History Graph

Search for Another Location

Airport:

Trip Planner

Search our weather history database for the weather conditions in past years. The results will help you decide how hot, cold, wet, or windy it might be!

Date:

Astronomy

Nov. 10, 2012 Rise Set
Actual Time 7:19 AM EST 5:35 PM EST
Civil Twilight 6:51 AM EST 6:03 PM EST
Nautical Twilight 6:20 AM EST 6:35 PM EST
Astronomical Twilight 5:49 AM EST 7:05 PM EST
Moon 3:27 AM EST (11/10) 3:19 PM EST (11/10)
Length of Visible Light 11h 11m
Length of Day
10h 16m
Waning Crescent, 14% of the Moon is Illuminated
Nov 10
Waning Crescent
Nov 13
New
Nov 20
First Quarter
Nov 28
Full
Dec 6
Last Quarter

Hourly Weather History & Observations

Time (EST) Temp. Dew Point Humidity Pressure Visibility Wind Dir Wind Speed Gust Speed Precip Events Conditions
12:55 AM 51.3 °F 38.7 °F 62% 30.14 in 10.0 mi South 9.2 mph - N/A   Mostly Cloudy
1:55 AM 49.6 °F 38.3 °F 65% 30.14 in 10.0 mi South 8.1 mph - N/A   Scattered Clouds
2:55 AM 51.3 °F 38.5 °F 62% 30.15 in 10.0 mi SSW 8.1 mph - N/A   Clear
3:55 AM 49.3 °F 37.8 °F 65% 30.17 in 10.0 mi SSW 6.9 mph - N/A   Clear
4:55 AM 47.1 °F 37.4 °F 69% 30.18 in 10.0 mi South 5.8 mph - N/A   Clear
5:55 AM 46.9 °F 37.6 °F 70% 30.20 in 10.0 mi South 5.8 mph - N/A   Clear
6:55 AM 45.1 °F 36.9 °F 73% 30.22 in 10.0 mi Calm Calm - N/A   Clear
7:55 AM 46.9 °F 38.3 °F 72% 30.22 in 10.0 mi SSE 5.8 mph - N/A   Clear
8:55 AM 53.6 °F 39.9 °F 60% 30.23 in 10.0 mi South 10.4 mph - N/A   Clear
9:55 AM 59.0 °F 42.1 °F 53% 30.22 in 10.0 mi SSW 13.8 mph - N/A   Clear
10:55 AM 64.2 °F 45.9 °F 51% 30.22 in 10.0 mi South 13.8 mph - N/A   Clear
11:55 AM 67.8 °F 48.6 °F 50% 30.20 in 10.0 mi South 16.1 mph 21.9 mph N/A   Clear
12:55 PM 70.3 °F 48.6 °F 46% 30.17 in 10.0 mi South 15.0 mph - N/A   Clear
1:55 PM 72.0 °F 45.9 °F 39% 30.15 in 10.0 mi South 13.8 mph - N/A   Clear
2:55 PM 72.9 °F 44.4 °F 36% 30.12 in 10.0 mi South 15.0 mph 21.9 mph N/A   Clear
3:55 PM 72.0 °F 41.9 °F 34% 30.12 in 10.0 mi South 17.3 mph 23.0 mph N/A   Clear
4:55 PM 69.1 °F 42.4 °F 38% 30.14 in 10.0 mi South 11.5 mph 18.4 mph N/A   Clear
5:55 PM 63.9 °F 42.3 °F 45% 30.14 in 10.0 mi SSE 8.1 mph - N/A   Clear
6:55 PM 61.2 °F 42.4 °F 50% 30.17 in 10.0 mi SSE 6.9 mph - N/A   Clear
7:55 PM 56.5 °F 41.7 °F 58% 30.18 in 10.0 mi SSE 3.5 mph - N/A   Clear
8:55 PM 57.4 °F 41.7 °F 56% 30.18 in 10.0 mi South 6.9 mph - N/A   Clear
9:55 PM 55.9 °F 41.9 °F 59% 30.19 in 10.0 mi South 8.1 mph - N/A   Clear
10:55 PM 56.1 °F 41.2 °F 57% 30.18 in 10.0 mi South 8.1 mph - N/A   Clear
11:55 PM 55.4 °F 40.5 °F 57% 30.18 in 10.0 mi South 6.9 mph - N/A   Clear